Location: ???? ?????
(30.0052°N, 31.2891°E)
Time: 21:38:41
(UTC+00:00)

Cosmos 1624 Rocket - Pass Details

Date: 26 May 2022
Orbit: 757 x 782 km, 74.0° (Epoch: 04 July)

Event Time Altitude Azimuth Distance (km) Brightness Sun altitude
Exits shadow 01:41:25 22° 228° (SW) 1,636 5.1 -14.8°
Maximum altitude 01:44:26 44° 289° (WNW) 1,066 4.5 -14.3°
Drops below altitude 10° 01:49:30 10° 1° (N) 2,331 7.0 -13.4°
Sets 01:51:59 0° 8° (N) 3,258 7.9 -12.9°
